Weather History for Gilze-Rijen, Netherlands

Change the Weather History Date:

Sunday, March 10, 2013

  Actual Average Record
Temperature  
Mean Temperature 34 °F -  
Max Temperature 37 °F 51 °F 65 °F (2014)
Min Temperature 30 °F 36 °F 28 °F (1999)
Degree Days  
Heating Degree Days 32    
Moisture  
Dew Point 30 °F    
Average Humidity 87    
Maximum Humidity 100    
Minimum Humidity 75    
Precipitation  
Precipitation 0.00 in - - ()
Sea Level Pressure  
Sea Level Pressure 29.60 in    
Wind  
Wind Speed 10 mph ()    
Max Wind Speed 15 mph    
Max Gust Speed -    
Visibility 5.9 miles    
Events Rain , Snow    
Averages and records for this station are not official NWS values.
T = Trace of Precipitation, MM = Missing Value Source: Averaged Metar Reports

Daily Weather History Graph

Daily Weather History Graph

Search for Another Location

Airport:

Trip Planner

Search our weather history database for the weather conditions in past years. The results will help you decide how hot, cold, wet, or windy it might be!

Date:

Astronomy

Mar. 10, 2013 Rise Set
Actual Time 7:05 AM CET 6:36 PM CET
Civil Twilight 6:32 AM CET 7:09 PM CET
Nautical Twilight 5:53 AM CET 7:48 PM CET
Astronomical Twilight 5:13 AM CET 8:28 PM CET
Moon 6:02 AM CET (3/10) 5:23 PM CET (3/10)
Length of Visible Light 12h 37m
Length of Day
11h 30m
Waning Crescent, 2% of the Moon is Illuminated
Mar 10
Waning Crescent
Mar 11
New
Mar 19
First Quarter
Mar 27
Full
Apr 3
Last Quarter

Hourly Weather History & Observations

Time (CET) Temp. Windchill Dew Point Humidity Pressure Visibility Wind Dir Wind Speed Gust Speed Precip Events Conditions
12:25 AM 37.4 °F 31.4 °F 35.6 °F 93% 29.53 in 6.2 mi West 8.1 mph - N/A   Overcast
12:55 AM 37.4 °F 31.4 °F 35.6 °F 93% 29.53 in 6.2 mi West 8.1 mph - N/A   Overcast
1:25 AM 37.4 °F 31.4 °F 35.6 °F 93% 29.53 in 6.2 mi West 8.1 mph - N/A   Overcast
1:55 AM 37.4 °F 32.1 °F 35.6 °F 93% 29.53 in 6.2 mi West 6.9 mph - N/A   Overcast
2:25 AM 37.4 °F 31.4 °F 35.6 °F 93% 29.53 in 6.2 mi West 8.1 mph - N/A   Overcast
2:55 AM 37.4 °F 31.4 °F 35.6 °F 93% 29.53 in 6.2 mi West 8.1 mph - N/A   Overcast
3:09 AM 37.4 °F 30.8 °F 35.6 °F 93% 29.53 in 6.2 mi West 9.2 mph - N/A   Mostly Cloudy
3:25 AM 37.4 °F 29.8 °F 35.6 °F 93% 29.53 in 3.7 mi WNW 11.5 mph - N/A   Drizzle
3:27 AM 37.4 °F 29.8 °F 35.6 °F 93% 29.53 in 5.6 mi WNW 11.5 mph - N/A   Drizzle
3:33 AM 37.4 °F 30.3 °F 35.6 °F 93% 29.53 in 4.3 mi WNW 10.4 mph - N/A   Drizzle
3:35 AM 35.6 °F 28.0 °F 35.6 °F 100% 29.53 in 5.0 mi WNW 10.4 mph - N/A   Light Drizzle
3:43 AM 35.6 °F 28.6 °F 35.6 °F 100% 29.53 in 5.0 mi NW 9.2 mph - N/A   Light Drizzle
3:47 AM 35.6 °F 29.2 °F 35.6 °F 100% 29.53 in 5.6 mi NW 8.1 mph - N/A   Light Drizzle
3:55 AM 35.6 °F 29.9 °F 33.8 °F 93% 29.53 in 6.2 mi NW 6.9 mph - N/A   Light Drizzle
4:05 AM 35.6 °F 29.2 °F 33.8 °F 93% 29.53 in 6.2 mi NW 8.1 mph - N/A   Drizzle
4:25 AM 33.8 °F 27.0 °F 33.8 °F 100% 29.53 in 6.2 mi NNW 8.1 mph - N/A   Drizzle
4:55 AM 33.8 °F 27.0 °F 33.8 °F 100% 29.53 in 5.6 mi NNW 8.1 mph - N/A Rain Light Rain
5:25 AM 33.8 °F 27.7 °F 33.8 °F 100% 29.53 in 4.3 mi NNW 6.9 mph - N/A Rain Light Rain
5:55 AM 33.8 °F 27.0 °F 32.0 °F 93% 29.53 in 4.3 mi NNW 8.1 mph - N/A Rain Light Rain
6:03 AM 33.8 °F 27.0 °F 32.0 °F 93% 29.53 in - NNW 8.1 mph - N/A Rain Light Rain
6:25 AM 33.8 °F 27.0 °F 32.0 °F 93% 29.53 in - NNW 8.1 mph - N/A Rain Light Rain
6:37 AM 33.8 °F 27.7 °F 32.0 °F 93% 29.53 in - North 6.9 mph - N/A Rain , Snow Light Rain
6:55 AM 33.8 °F 27.0 °F 32.0 °F 93% 29.53 in - North 8.1 mph - N/A Rain Rain
7:25 AM 33.8 °F 27.0 °F 32.0 °F 93% 29.53 in - North 8.1 mph - N/A Rain , Snow Light Rain
7:55 AM 33.8 °F 27.0 °F 32.0 °F 93% 29.53 in 3.1 mi North 8.1 mph - N/A Snow Light Snow
8:02 AM 33.8 °F 25.8 °F 32.0 °F 93% 29.53 in 3.7 mi North 10.4 mph - N/A Snow Light Snow
8:25 AM 33.8 °F 25.8 °F 32.0 °F 93% 29.56 in 4.3 mi North 10.4 mph - N/A   Mostly Cloudy
8:46 AM 33.8 °F 25.3 °F 32.0 °F 93% 29.56 in 6.2 mi North 11.5 mph - N/A   Overcast
8:55 AM 33.8 °F 25.8 °F 32.0 °F 93% 29.56 in 6.2 mi North 10.4 mph - N/A   Overcast
9:25 AM 33.8 °F 25.8 °F 32.0 °F 93% 29.56 in 6.2 mi North 10.4 mph - N/A   Overcast
9:55 AM 33.8 °F 24.8 °F 30.2 °F 87% 29.56 in 6.2 mi NNE 12.7 mph - N/A   Overcast
10:25 AM 33.8 °F 23.9 °F 30.2 °F 87% 29.56 in 6.2 mi NNE 15.0 mph - N/A   Overcast
10:55 AM 33.8 °F 24.3 °F 30.2 °F 87% 29.59 in 6.2 mi NNE 13.8 mph - N/A   Overcast
11:25 AM 33.8 °F 24.3 °F 30.2 °F 87% 29.59 in 6.2 mi NNE 13.8 mph - N/A   Overcast
11:55 AM 33.8 °F 24.3 °F 30.2 °F 87% 29.59 in 6.2 mi NNE 13.8 mph - N/A   Overcast
12:25 PM 33.8 °F 24.3 °F 28.4 °F 81% 29.62 in 6.2 mi NNE 13.8 mph - N/A   Overcast
12:55 PM 33.8 °F 24.8 °F 28.4 °F 81% 29.62 in 6.2 mi NNE 12.7 mph - N/A   Overcast
1:25 PM 33.8 °F 23.9 °F 28.4 °F 81% 29.62 in 6.2 mi NNE 15.0 mph - N/A   Overcast
1:55 PM 33.8 °F 24.3 °F 28.4 °F 81% 29.62 in 6.2 mi NNE 13.8 mph - N/A   Overcast
2:25 PM 33.8 °F 23.9 °F 28.4 °F 81% 29.62 in 6.2 mi NNE 15.0 mph - N/A   Overcast
2:27 PM 33.8 °F 24.3 °F 28.4 °F 81% 29.62 in 6.2 mi NNE 13.8 mph - N/A   Overcast
2:45 PM 33.8 °F 23.9 °F 28.4 °F 81% 29.62 in 6.2 mi NNE 15.0 mph - N/A   Overcast
2:55 PM 32.0 °F 21.6 °F 28.4 °F 87% 29.62 in 6.2 mi North 15.0 mph - N/A   Overcast
3:25 PM 32.0 °F 22.1 °F 28.4 °F 87% 29.62 in 6.2 mi NNE 13.8 mph - N/A   Overcast
3:26 PM 32.0 °F 22.1 °F 28.4 °F 87% 29.62 in 6.2 mi NNE 13.8 mph - N/A   Overcast
3:55 PM 33.8 °F 24.8 °F 26.6 °F 75% 29.62 in 6.2 mi NE 12.7 mph - N/A   Overcast
4:25 PM 32.0 °F 21.6 °F 26.6 °F 80% 29.65 in 6.2 mi NNE 15.0 mph - N/A   Overcast
4:55 PM 32.0 °F 22.1 °F 26.6 °F 80% 29.65 in 6.2 mi NE 13.8 mph - N/A   Overcast
5:25 PM 32.0 °F 22.5 °F 26.6 °F 80% 29.65 in 6.2 mi NE 12.7 mph - N/A   Overcast
5:55 PM 32.0 °F 22.1 °F 26.6 °F 80% 29.65 in 6.2 mi NE 13.8 mph - N/A   Overcast
6:09 PM 32.0 °F 23.6 °F 26.6 °F 80% 29.65 in 6.2 mi NE 10.4 mph - N/A   Overcast
6:25 PM 32.0 °F 23.0 °F 24.8 °F 75% 29.65 in 6.2 mi NE 11.5 mph - N/A   Overcast
6:29 PM 32.0 °F 23.0 °F 24.8 °F 75% 29.65 in 6.2 mi NE 11.5 mph - N/A   Overcast
6:55 PM 32.0 °F 22.5 °F 26.6 °F 80% 29.68 in 6.2 mi NE 12.7 mph - N/A   Overcast
7:12 PM 32.0 °F 22.5 °F 26.6 °F 80% 29.68 in 6.2 mi NE 12.7 mph - N/A   Overcast
7:17 PM 32.0 °F 23.0 °F 24.8 °F 75% 29.68 in 6.2 mi NE 11.5 mph - N/A   Overcast
7:25 PM 32.0 °F 23.6 °F 26.6 °F 80% 29.68 in 6.2 mi NE 10.4 mph - N/A   Overcast
7:55 PM 32.0 °F 23.0 °F 26.6 °F 80% 29.68 in 6.2 mi NE 11.5 mph - N/A   Overcast
8:25 PM 32.0 °F 23.0 °F 24.8 °F 75% 29.68 in 6.2 mi NE 11.5 mph - N/A   Overcast
8:55 PM 32.0 °F 22.1 °F 24.8 °F 75% 29.68 in 6.2 mi NE 13.8 mph - N/A   Overcast
9:25 PM 32.0 °F 23.0 °F 24.8 °F 75% 29.68 in 6.2 mi NE 11.5 mph - N/A   Overcast
9:55 PM 30.2 °F 20.8 °F 24.8 °F 80% 29.68 in 6.2 mi NE 11.5 mph - N/A   Overcast
9:59 PM 30.2 °F 20.8 °F 24.8 °F 80% 29.68 in 6.2 mi NE 11.5 mph - N/A   Overcast
10:25 PM 30.2 °F 19.8 °F 23.0 °F 75% 29.71 in 6.2 mi NE 13.8 mph - N/A   Overcast
10:55 PM 30.2 °F 20.2 °F 23.0 °F 75% 29.71 in 6.2 mi NE 12.7 mph - N/A   Overcast
11:25 PM 30.2 °F 20.8 °F 23.0 °F 75% 29.71 in 6.2 mi NE 11.5 mph - N/A   Overcast
11:55 PM 30.2 °F 20.8 °F 23.0 °F 75% 29.71 in 6.2 mi NE 11.5 mph - N/A   Overcast